DW1253 Weather Reports


time (UTC)temp
F
wind
direction
speed
knots
gust
knots
rain 1hr
in
rain 24hr
in
rain mn
in
humidity
%
barometer
mb
20260507230834 47 242 1.7 7.0 0.00 0.00 0.00 59 1008.6
20260507230353 47 266 1.7 6.1 0.00 0.00 0.00 59 1008.7
20260507225354 48 229 1.7 3.5 0.00 0.00 0.00 60 1008.6
20260507224843 48 88 0.9 3.5 0.00 0.00 0.00 58 1008.6
20260507224343 48 242 1.7 4.3 0.00 0.00 0.00 61 1008.6
20260507223840 48 201 2.6 7.0 0.00 0.00 0.00 59 1008.5
20260507223337 49 135 1.7 7.0 0.00 0.00 0.00 55 1008.5
20260507222838 49 182 1.7 5.2 0.00 0.00 0.00 56 1008.5
20260507222355 49 232 0.9 5.2 0.00 0.00 0.00 57 1008.5
20260507221850 49 126 0.9 3.5 0.00 0.00 0.00 56 1008.5
20260507221348 49 50 1.7 7.0 0.00 0.00 0.00 56 1008.5
20260507220908 49 360 2.6 7.0 0.00 0.00 0.00 54 1008.5
20260507220345 49 28 1.7 7.0 0.00 0.00 0.00 56 1008.5
20260507215839 50 13 1.7 4.3 0.00 0.00 0.00 55 1008.5
20260507215353 50 325 0.9 7.8 0.00 0.00 0.00 56 1008.5
20260507214849 50 9 1.7 7.8 0.00 0.00 0.00 56 1008.4
20260507214343 50 207 1.7 7.0 0.00 0.00 0.00 53 1008.3
20260507213836 51 317 1.7 7.0 0.00 0.00 0.00 57 1008.3
20260507213335 51 140 1.7 6.1 0.00 0.00 0.00 53 1008.3
20260507212840 52 9 2.6 4.3 0.00 0.00 0.00 52 1008.3
20260507212359 52 48 1.7 7.0 0.00 0.00 0.00 50 1008.4
20260507211856 52 239 1.7 8.7 0.00 0.00 0.00 50 1008.4
20260507211341 52 221 3.5 8.7 0.00 0.00 0.00 53 1008.4
20260507210847 52 204 1.7 7.0 0.00 0.00 0.00 48 1008.4
20260507210349 51 290 2.6 7.0 0.00 0.00 0.00 51 1008.4
20260507205849 51 333 1.7 8.7 0.00 0.00 0.00 52 1008.5
20260507205345 50 263 3.5 8.7 0.00 0.00 0.00 48 1008.4
20260507204907 51 5 1.7 7.0 0.00 0.00 0.00 49 1008.4
20260507204342 53 63 2.6 5.2 0.00 0.00 0.00 45 1008.5
20260507203852 52 194 2.6 7.8 0.00 0.00 0.00 47 1008.4
20260507203353 53 236 1.7 7.8 0.00 0.00 0.00 50 1008.5
20260507202839 52 34 2.6 7.0 0.00 0.00 0.00 46 1008.5
20260507202351 53 238 2.6 7.8 0.00 0.00 0.00 47 1008.5
20260507201843 53 290 2.6 7.8 0.00 0.00 0.00 46 1008.4
20260507201354 53 282 2.6 7.0 0.00 0.00 0.00 44 1008.4
20260507200848 53 242 3.5 10.4 0.00 0.00 0.00 44 1008.5
20260507200349 53 256 4.3 10.4 0.00 0.00 0.00 47 1008.4
20260507195844 54 180 2.6 9.6 0.00 0.00 0.00 43 1008.4
20260507195411 54 307 3.5 13.0 0.00 0.00 0.00 47 1008.4
20260507194842 54 9 4.3 13.0 0.00 0.00 0.00 47 1008.4
20260507194346 54 257 2.6 7.8 0.00 0.00 0.00 44 1008.4
20260507193842 53 227 2.6 6.1 0.00 0.00 0.00 48 1008.4
20260507193405 53 210 3.5 7.8 0.00 0.00 0.00 47 1008.5
20260507192839 54 265 4.3 7.8 0.00 0.00 0.00 44 1008.5
20260507192354 54 242 2.6 7.0 0.00 0.00 0.00 44 1008.6
20260507191840 54 321 2.6 7.8 0.00 0.00 0.00 48 1008.7
20260507191348 54 317 2.6 7.8 0.00 0.00 0.00 47 1008.6
20260507190844 54 250 1.7 7.0 0.00 0.00 0.00 48 1008.7
20260507190337 53 219 3.5 10.4 0.00 0.00 0.00 51 1008.7
20260507185845 53 253 2.6 10.4 0.00 0.00 0.00 50 1008.9
20260507185346 53 190 2.6 7.8 0.00 0.00 0.00 50 1008.8
20260507184920 53 286 1.7 7.8 0.00 0.00 0.00 48 1008.9
20260507184414 53 266 2.6 7.8 0.00 0.00 0.00 48 1008.7
20260507183914 54 121 2.6 9.6 0.00 0.00 0.00 54 1008.9
20260507183347 54 264 2.6 9.6 0.00 0.00 0.00 51 1008.8
20260507182845 54 236 3.5 7.8 0.00 0.00 0.00 52 1008.9
20260507182343 53 315 2.6 7.8 0.00 0.00 0.00 51 1008.9
20260507181833 53 205 2.6 12.2 0.00 0.00 0.00 50 1009.0
20260507181351 53 192 6.1 12.2 0.00 0.00 0.00 50 1009.0
20260507180900 53 162 4.3 8.7 0.00 0.00 0.00 57 1009.0
20260507180410 53 138 3.5 7.8 0.00 0.00 0.00 51 1009.1
20260507175852 52 252 4.3 7.8 0.00 0.00 0.00 59 1009.1
20260507175356 52 204 2.6 5.2 0.00 0.00 0.00 58 1009.2
20260507174908 52 202 1.7 7.0 0.00 0.00 0.00 55 1009.2
20260507174335 52 267 2.6 5.2 0.00 0.00 0.00 58 1009.2
20260507173838 52 270 2.6 8.7 0.00 0.00 0.00 56 1009.3
20260507173351 53 337 3.5 8.7 0.00 0.00 0.00 60 1009.2
20260507172851 52 123 2.6 9.6 0.00 0.00 0.00 59 1009.1
20260507172405 51 205 4.3 9.6 0.00 0.00 0.00 55 1009.1
20260507171843 51 99 2.6 6.1 0.00 0.00 0.00 65 1009.3
20260507171412 52 237 2.6 9.6 0.00 0.00 0.00 58 1009.2
20260507170852 52 40 4.3 11.3 0.00 0.00 0.00 62 1009.4
20260507170342 51 251 6.1 12.2 0.00 0.00 0.00 63 1009.4
20260507165845 50 251 6.1 12.2 0.00 0.00 0.00 62 1009.4
20260507165349 51 182 2.6 7.8 0.00 0.00 0.00 66 1009.5
20260507164846 51 284 2.6 6.1 0.00 0.00 0.00 65 1009.6
20260507164339 51 302 1.7 5.2 0.00 0.00 0.00 62 1009.6
20260507163859 52 31 2.6 5.2 0.00 0.00 0.00 65 1009.6
20260507163336 51 339 2.6 8.7 0.00 0.00 0.00 63 1009.7
20260507162846 50 348 3.5 8.7 0.00 0.00 0.00 67 1009.7
20260507162340 50 55 1.7 5.2 0.00 0.00 0.00 63 1009.8
20260507161900 51 36 2.6 5.2 0.00 0.00 0.00 65 1009.8
20260507161344 50 205 2.6 7.8 0.00 0.00 0.00 63 1009.8
20260507160846 51 340 1.7 12.2 0.00 0.00 0.00 62 1009.8
20260507160344 52 312 4.3 12.2 0.00 0.00 0.00 57 1009.9
20260507155855 52 210 2.6 11.3 0.00 0.00 0.00 59 1009.9
20260507155335 52 267 3.5 10.4 0.00 0.00 0.00 64 1009.9
20260507154838 50 205 2.6 7.0 0.00 0.00 0.00 65 1009.9
20260507154418 50 215 2.6 7.0 0.00 0.00 0.00 65 1010.0
20260507153909 49 53 2.6 6.1 0.00 0.00 0.00 66 1010.0
20260507153349 49 33 1.7 8.7 0.00 0.00 0.00 67 1010.0
20260507152844 50 96 1.7 8.7 0.00 0.00 0.00 66 1010.1
20260507152342 50 38 1.7 9.6 0.00 0.00 0.00 69 1010.1
20260507151901 50 222 6.1 9.6 0.00 0.00 0.00 68 1010.1
20260507151409 50 240 2.6 9.6 0.00 0.00 0.00 73 1010.2
20260507150847 48 104 1.7 6.1 0.00 0.00 0.00 70 1010.2
20260507150338 49 278 1.7 8.7 0.00 0.00 0.00 69 1010.2
20260507145839 48 41 2.6 8.7 0.00 0.00 0.00 71 1010.2
20260507145342 48 245 2.6 4.3 0.00 0.00 0.00 72 1010.3
20260507144844 49 351 1.7 4.3 0.00 0.00 0.00 69 1010.2
20260507144342 49 24 1.7 4.3 0.00 0.00 0.00 72 1010.1
20260507143844 48 302 1.7 3.5 0.00 0.00 0.00 76 1010.2
20260507143345 46 277 1.7 4.3 0.00 0.00 0.00 73 1010.3
20260507142858 47 295 1.7 6.1 0.00 0.00 0.00 72 1010.3
20260507142410 47 67 1.7 6.1 0.00 0.00 0.00 75 1010.3
20260507141852 47 49 1.7 7.0 0.00 0.00 0.00 73 1010.3
20260507141352 46 237 2.6 7.0 0.00 0.00 0.00 72 1010.3
20260507140846 47 240 2.6 5.2 0.00 0.00 0.00 75 1010.3
20260507140350 46 227 1.7 10.4 0.00 0.00 0.00 73 1010.4
20260507135843 46 217 2.6 10.4 0.00 0.01 0.00 77 1010.5
20260507135345 46 214 3.5 7.0 0.00 0.01 0.00 76 1010.5
20260507134908 46 259 2.6 7.0 0.00 0.01 0.00 78 1010.6
20260507134353 45 284 1.7 7.0 0.00 0.01 0.00 77 1010.7
20260507133852 45 223 2.6 7.8 0.00 0.01 0.00 76 1010.5
20260507133347 45 280 4.3 7.8 0.00 0.01 0.00 75 1010.6
20260507132834 45 221 1.7 4.3 0.00 0.01 0.00 77 1010.4
20260507132350 45 138 0.9 5.2 0.00 0.01 0.00 77 1010.5
20260507131852 44 263 1.7 5.2 0.00 0.01 0.00 77 1010.4
20260507131345 45 200 1.7 6.1 0.00 0.01 0.00 77 1010.5
20260507130844 45 234 2.6 6.1 0.00 0.01 0.00 80 1010.5
20260507130338 44 252 0.0 6.1 0.00 0.01 0.00 82 1010.5
20260507125846 43 234 1.7 6.1 0.00 0.03 0.00 82 1010.5
20260507125339 43 246 2.6 4.3 0.00 0.03 0.00 85 1010.5
20260507124839 43 223 1.7 4.3 0.00 0.03 0.00 84 1010.6
20260507124341 43 355 1.7 4.3 0.00 0.03 0.00 83 1010.7
20260507123840 43 160 0.9 3.5 0.00 0.03 0.00 84 1010.6
20260507123350 43 306 0.9 5.2 0.00 0.03 0.00 85 1010.7
20260507122848 43 268 1.7 5.2 0.00 0.03 0.00 84 1010.6
20260507122336 42 26 0.9 5.2 0.00 0.03 0.00 83 1010.6
20260507121855 43 5 0.9 2.6 0.00 0.03 0.00 83 1010.6
20260507121339 43 121 0.0 2.6 0.00 0.03 0.00 83 1010.6
20260507120852 42 320 0.9 2.6 0.00 0.03 0.00 85 1010.9
20260507120338 42 216 0.9 2.6 0.00 0.03 0.00 84 1010.9
20260507115852 42 280 0.0 2.6 0.00 0.08 0.00 88 1010.9
20260507115350 40 208 0.0 0.9 0.00 0.08 0.00 92 1010.8
20260507114846 39 208 0.9 1.7 0.00 0.08 0.00 93 1010.8
20260507114336 38 208 0.0 1.7 0.00 0.08 0.00 93 1010.8
20260507113840 38 208 0.0 0.9 0.00 0.08 0.00 93 1010.9
20260507113400 38 208 0.0 0.9 0.00 0.08 0.00 93 1010.7
20260507112844 38 208 0.0 0.9 0.00 0.08 0.00 93 1010.6
20260507112357 38 208 0.0 0.9 0.00 0.08 0.00 93 1010.5
20260507111837 37 208 0.0 1.7 0.00 0.08 0.00 93 1010.4
20260507111338 37 208 0.9 1.7 0.00 0.08 0.00 93 1010.4
20260507110857 37 241 0.0 1.7 0.00 0.08 0.00 93 1010.3
20260507110336 37 241 0.0 2.6 0.00 0.08 0.00 93 1010.2
20260507105836 36 241 0.9 2.6 0.00 0.11 0.00 93 1010.2
20260507105413 36 241 0.9 1.7 0.00 0.11 0.00 93 1010.0
20260507104855 36 241 0.9 1.7 0.00 0.11 0.00 93 1010.1
20260507104348 36 241 0.0 1.7 0.00 0.11 0.00 93 1010.0
20260507103838 36 241 0.0 0.9 0.00 0.11 0.00 93 1009.9
20260507103353 36 241 0.0 0.9 0.00 0.11 0.00 93 1009.9
20260507102849 36 241 0.0 0.9 0.00 0.11 0.00 93 1010.0
20260507102346 36 241 0.0 0.9 0.00 0.11 0.00 93 1009.9
20260507101835 36 241 0.0 1.7 0.00 0.11 0.00 93 1009.9
20260507101354 36 241 0.0 1.7 0.00 0.11 0.00 93 1010.0
20260507100900 36 241 0.0 1.7 0.00 0.11 0.00 93 1010.0
20260507100400 36 241 0.0 2.6 0.00 0.11 0.00 93 1009.9
20260507095843 36 241 0.0 3.5 0.00 0.19 0.00 93 1009.9
20260507095340 36 252 0.9 3.5 0.00 0.19 0.00 93 1009.9
20260507094851 36 229 0.9 2.6 0.00 0.19 0.00 93 1009.8
20260507094351 37 254 0.0 1.7 0.00 0.19 0.00 93 1009.9
20260507093836 37 254 0.0 2.6 0.00 0.19 0.00 93 1009.8
20260507093347 37 265 0.0 1.7 0.00 0.19 0.00 93 1009.8
20260507092842 37 232 0.0 1.7 0.00 0.19 0.00 93 1009.8
20260507092354 37 232 0.0 0.9 0.00 0.19 0.00 93 1009.7
20260507091854 37 232 0.0 0.0 0.00 0.19 0.00 93 1009.8
20260507090856 38 232 0.0 1.7 0.00 0.19 0.00 93 1009.8
20260507090349 38 232 0.0 1.7 0.00 0.19 0.00 93 1009.8
20260507085839 38 232 0.0 1.7 0.00 0.25 0.00 93 1009.8
20260507085354 38 232 0.9 1.7 0.00 0.25 0.00 93 1009.8
20260507084855 38 232 0.9 1.7 0.00 0.25 0.00 93 1009.8
20260507084415 38 232 0.0 0.9 0.00 0.25 0.00 93 1009.9
20260507083837 38 232 0.0 0.9 0.00 0.25 0.00 93 1010.0
20260507083342 38 232 0.0 0.9 0.00 0.25 0.00 93 1010.0
20260507082834 38 232 0.0 0.9 0.00 0.25 0.00 93 1010.1
20260507082337 38 232 0.0 2.6 0.00 0.25 0.00 93 1010.1
20260507081840 38 232 0.9 3.5 0.00 0.25 0.00 93 1010.1
20260507081347 38 232 0.9 3.5 0.00 0.25 0.00 93 1010.1
20260507080845 38 244 0.9 4.3 0.00 0.25 0.00 93 1010.1
20260507080348 38 244 0.0 4.3 0.00 0.25 0.00 92 1010.1
20260507075835 38 247 0.9 3.5 0.00 0.29 0.00 92 1010.2
20260507075356 38 247 0.9 3.5 0.00 0.29 0.00 92 1010.2
20260507074914 38 248 0.0 2.6 0.00 0.29 0.00 92 1010.1
20260507074348 38 248 0.0 2.6 0.00 0.29 0.00 92 1010.1
20260507073845 38 248 0.9 2.6 0.00 0.29 0.00 92 1010.0
20260507073337 38 248 0.0 1.7 0.00 0.29 0.00 91 1010.0
20260507072854 38 248 0.9 1.7 0.00 0.29 0.00 91 1010.0
20260507072344 38 248 0.0 1.7 0.00 0.29 0.00 91 1009.9
20260507071846 38 248 0.9 1.7 0.00 0.29 0.00 91 1010.0
20260507071344 38 248 0.0 0.0 0.00 0.29 0.00 91 1010.0
20260507070837 38 248 0.0 1.7 0.00 0.29 0.00 91 1010.0
20260507070337 38 248 0.0 1.7 0.00 0.29 0.00 91 1010.0
20260507065850 38 248 0.0 2.6 0.00 0.45 0.00 90 1010.1
20260507065337 38 252 0.0 1.7 0.00 0.45 0.00 90 1010.3
20260507064839 38 284 0.0 0.0 0.00 0.45 0.00 90 1010.4
20260507064336 38 284 0.0 0.0 0.00 0.45 0.00 90 1010.5
20260507063907 38 284 0.0 0.0 0.00 0.45 0.00 90 1010.5
20260507063344 38 284 0.0 0.0 0.00 0.45 0.00 90 1010.6
20260507062846 38 284 0.0 0.0 0.00 0.45 0.00 90 1010.6
20260507062342 39 284 0.0 0.0 0.00 0.45 0.00 90 1010.6
20260507061859 39 284 0.0 0.0 0.00 0.45 0.00 90 1010.5
20260507061334 39 284 0.0 0.0 0.00 0.45 0.00 90 1010.5
20260507060855 39 284 0.0 0.0 0.00 0.45 0.00 91 1010.6
20260507060348 39 284 0.0 0.0 0.00 0.45 0.00 91 1010.5
20260507055836 39 284 0.0 0.0 0.00 0.55 0.00 91 1010.4
20260507055334 40 284 0.0 0.0 0.00 0.55 0.00 91 1010.5
20260507054849 40 284 0.0 0.0 0.00 0.55 0.00 91 1010.6
20260507054342 40 284 0.0 0.0 0.00 0.55 0.00 91 1010.5
20260507053834 40 284 0.0 0.0 0.00 0.55 0.00 91 1010.6
20260507053351 40 284 0.0 0.0 0.00 0.55 0.00 91 1010.7
20260507052913 40 284 0.0 0.0 0.00 0.55 0.00 91 1010.7
20260507052407 40 284 0.0 0.0 0.00 0.55 0.00 91 1010.8
20260507051840 40 284 0.0 0.0 0.00 0.55 0.00 91 1010.8
20260507051336 41 284 0.0 0.0 0.00 0.55 0.00 91 1011.1
20260507050848 41 284 0.0 0.0 0.00 0.55 0.00 91 1010.9
20260507050344 41 284 0.0 0.0 0.00 0.55 0.00 91 1010.9
20260507045846 41 284 0.0 0.0 0.00 0.61 0.00 91 1011.0
20260507045344 41 284 0.0 0.0 0.00 0.61 0.00 91 1011.1
20260507044859 41 284 0.0 0.0 0.00 0.61 0.00 91 1011.1
20260507044340 41 284 0.0 0.0 0.00 0.61 0.00 91 1011.1
20260507043856 41 284 0.0 0.0 0.00 0.61 0.00 91 1011.1
20260507043412 41 284 0.0 0.0 0.00 0.61 0.00 91 1011.2
20260507042908 41 284 0.0 0.0 0.00 0.61 0.00 91 1011.0
20260507042356 41 284 0.0 0.0 0.00 0.61 0.00 91 1011.1
20260507041853 41 284 0.0 0.0 0.00 0.61 0.00 91 1011.1
20260507041415 41 284 0.0 0.0 0.00 0.61 0.00 91 1011.0
20260507040907 41 284 0.0 0.0 0.00 0.61 0.00 91 1011.1
20260507040342 41 284 0.0 0.0 0.00 0.61 0.00 91 1011.1
20260507035854 41 284 0.0 0.0 0.00 0.67 0.61 91 1011.1
20260507035352 41 284 0.0 0.0 0.00 0.67 0.61 91 1011.1
20260507034843 41 284 0.0 0.0 0.00 0.67 0.61 91 1011.0
20260507034401 41 284 0.0 0.0 0.00 0.67 0.61 91 1011.0
20260507033918 41 284 0.0 0.0 0.00 0.67 0.61 91 1010.9
20260507033335 41 284 0.0 0.0 0.00 0.67 0.61 90 1010.9
20260507032840 41 284 0.0 0.0 0.00 0.67 0.61 90 1010.9
20260507032340 41 284 0.0 0.0 0.00 0.67 0.61 90 1011.2
20260507031835 41 284 0.0 0.0 0.00 0.67 0.61 90 1011.0
20260507031336 41 284 0.0 0.0 0.00 0.67 0.61 90 1011.0
20260507030858 41 284 0.0 0.0 0.00 0.67 0.61 90 1011.2
20260507030353 41 284 0.0 0.0 0.00 0.67 0.61 90 1011.2
20260507025851 41 284 0.0 0.0 0.00 0.76 0.61 89 1011.2
20260507025351 41 284 0.0 0.0 0.00 0.76 0.61 89 1011.1
20260507024841 41 284 0.0 0.0 0.00 0.76 0.61 89 1010.9
20260507024403 41 284 0.0 0.0 0.00 0.76 0.61 89 1010.8
20260507023843 41 284 0.0 0.0 0.00 0.76 0.61 89 1010.8
20260507023358 41 284 0.0 0.0 0.00 0.76 0.61 89 1010.6
20260507022859 41 284 0.0 0.0 0.00 0.76 0.61 89 1010.5
20260507022359 41 284 0.0 0.0 0.00 0.76 0.61 89 1010.5
20260507021406 41 284 0.0 0.0 0.00 0.76 0.61 89 1010.7
20260507020846 41 284 0.0 0.0 0.00 0.76 0.61 89 1010.7
20260507020336 41 284 0.0 0.0 0.00 0.76 0.61 89 1010.8
20260507015853 41 284 0.0 0.0 0.00 0.83 0.61 89 1010.8
20260507015335 41 284 0.0 0.0 0.00 0.83 0.61 89 1010.8
20260507014837 41 284 0.0 0.0 0.00 0.83 0.61 89 1011.0
20260507014335 41 284 0.0 0.0 0.00 0.83 0.61 89 1010.9
20260507013835 41 284 0.0 0.0 0.00 0.83 0.61 89 1010.9
20260507013355 41 284 0.0 0.0 0.00 0.83 0.61 89 1010.9
20260507012847 41 284 0.0 0.0 0.00 0.83 0.61 89 1011.0
20260507012343 41 284 0.0 0.0 0.00 0.83 0.61 94 1011.1
20260507011842 41 284 0.0 0.0 0.00 0.83 0.61 89 1010.9
20260507011411 41 284 0.0 0.0 0.00 0.83 0.61 89 1010.8
20260507010847 41 284 0.0 0.0 0.00 0.83 0.61 89 1010.8
20260507010408 41 284 0.0 0.0 0.00 0.83 0.61 89 1010.8
20260507005837 41 284 0.0 0.0 0.00 0.91 0.61 89 1010.7
20260507005353 41 284 0.0 0.0 0.00 0.91 0.61 89 1010.5
20260507004910 41 284 0.0 0.9 0.00 0.91 0.61 89 1010.4
20260507004346 41 284 0.0 0.9 0.00 0.91 0.61 89 1010.5
20260507003845 41 284 0.0 0.0 0.00 0.91 0.61 89 1010.6
20260507003346 41 284 0.0 0.0 0.00 0.91 0.61 89 1010.7
20260507002848 41 284 0.0 0.0 0.00 0.91 0.61 89 1010.6
20260507002343 42 284 0.0 0.0 0.00 0.91 0.61 89 1010.6
20260507001844 42 284 0.0 0.0 0.00 0.91 0.61 89 1010.5
20260507001416 42 284 0.0 0.0 0.00 0.91 0.61 89 1010.1
20260507000835 42 284 0.0 0.0 0.00 0.91 0.61 89 1010.1
20260507000350 42 284 0.0 0.0 0.00 0.91 0.61 89 1010.1
20260506235911 42 284 0.0 0.0 0.00 1.01 0.61 89 1010.1
20260506235350 42 284 0.0 0.0 0.00 1.01 0.61 89 1010.0
20260506234845 42 284 0.0 0.0 0.00 1.01 0.61 89 1010.1
20260506234342 42 284 0.0 0.0 0.00 1.01 0.61 89 1010.0
20260506233849 42 302 0.0 0.0 0.00 1.01 0.61 90 1010.0
20260506233347 42 302 0.0 0.0 0.00 1.01 0.61 90 1009.9
20260506232844 42 178 0.0 0.0 0.00 1.01 0.61 90 1010.0
20260506232344 43 269 0.0 0.0 0.00 1.01 0.61 90 1010.1
20260506231849 43 269 0.0 0.9 0.00 1.01 0.61 90 1010.1
20260506231410 43 265 0.0 2.6 0.00 1.01 0.61 90 1009.8